Location: Olsztyn
(53.7767°N, 20.4765°E)
Time: 08:05:30
(UTC+01:00)

Transit 4A - Pass Details

Date: 03 October 2022
Orbit: 871 x 972 km, 66.8° (Epoch: 06 December)

Event Time Altitude Azimuth Distance (km) Brightness Sun altitude
Exits shadow 03:59:20 - 314° (NW) 2,763 10.2 -24.2°
Reaches altitude 10° 03:59:57 10° 318° (NW) 2,583 10.1 -24.1°
Maximum altitude 04:04:49 25° 12° (NNE) 1,715 9.7 -23.5°
Drops below altitude 10° 04:09:36 10° 67° (ENE) 2,539 11.3 -22.8°
Sets 04:12:32 0° 81° (E) 3,469 12.2 -22.5°
